Home > Weather > Stavern > Past weeks

Flag for Norway Weather for the Past 2 Weeks in Stavern, Norway

Now
27 °F

Chilly.


Feels Like: 16 °F
Forecast: 21 / 31 °F
Wind: 13 mph from North

Location: Torp

Current Time: Feb 12, 2016 at 5:23:25 AM

Latest Report: Feb 12, 2016 at 4:50 AM


Visibility: N/A

Pressure: 29.59 "Hg

Humidity: 59%

Dew point: 14 °F

Location of StavernLocation

Historic Weather in Stavern — Graph

°F

Stavern Temperature Yesterday

Maximum temperature yesterday: 36 °F (at 2:50 PM)
Minimum temperature yesterday: 28 °F (at 8:20 PM)
Average temperature yesterday: 33 °F

High & Low Weather Summary for the Past Weeks

 TemperatureHumidityPressure
High45 °F (Jan 29, 4:20 PM)100% (Jan 28, 3:20 AM)29.92 "Hg (Jan 28, 3:20 AM)
Low27 °F (Feb 12, 1:20 AM)41% (Feb 4, 12:20 PM)28.74 "Hg (Feb 2, 6:20 PM)
Average37 °F83%29.27 "Hg
* Reported Jan 28 3:20 AM — Feb 12 3:50 AM, Stavern, Weather by CustomWeather, © 2016

Note: Actual official high and low records may vary slightly from our data, if they occured in-between our weather recording intervals... More about our weather records

Advertising

Stavern Weather History for the Previous 24 Hours

 ConditionsComfort  
Time TempWeatherWind HumidityBarometerVisibility
3:50 AM
Fri, Feb 12
27 °FChilly.14 mph59%29.62 "HgN/A
3:20 AM27 °FChilly.13 mph59%29.62 "HgN/A
2:50 AM27 °FChilly.13 mph59%29.62 "HgN/A
2:20 AM27 °FChilly.15 mph59%29.62 "HgN/A
1:50 AM27 °FChilly.15 mph59%29.62 "HgN/A
1:20 AM27 °FChilly.13 mph59%29.62 "HgN/A
12:50 AM28 °FChilly.13 mph59%29.62 "HgN/A
12:20 AM28 °FChilly.15 mph59%29.62 "HgN/A
11:50 PM
Thu, Feb 11
28 °FChilly.15 mph59%29.62 "HgN/A
10:20 PM28 °FClear.14 mph59%29.62 "Hg10 mi
9:50 PM28 °FClear.15 mph59%29.62 "Hg10 mi
9:20 PM28 °FClear.15 mph59%29.59 "Hg10 mi
8:50 PM28 °FClear.15 mph59%29.59 "Hg10 mi
8:20 PM28 °FClear.12 mph64%29.59 "Hg10 mi
7:50 PM30 °FClear.13 mph59%29.59 "Hg10 mi
7:20 PM30 °FClear.13 mph59%29.59 "Hg10 mi
6:50 PM30 °FClear.10 mph59%29.59 "Hg10 mi
6:20 PM32 °FClear.15 mph55%29.56 "Hg10 mi
5:50 PM32 °FClear.15 mph55%29.56 "Hg10 mi
5:20 PM32 °FClear.14 mph60%29.56 "Hg10 mi
4:50 PM34 °FSunny.17 mph56%29.56 "Hg10 mi
4:20 PM34 °FSunny.17 mph56%29.53 "Hg10 mi
3:50 PM34 °FSunny.18 mph56%29.53 "Hg10 mi
3:20 PM36 °FSunny.18 mph52%29.50 "Hg10 mi
2:50 PM36 °FSunny.18 mph52%29.50 "Hg10 mi
2:20 PM34 °FSunny.17 mph60%29.50 "Hg10 mi
1:50 PM34 °FSunny.17 mph60%29.50 "Hg10 mi
1:20 PM34 °FSunny.18 mph60%29.50 "Hg10 mi
12:50 PM34 °FSunny.17 mph60%29.50 "Hg10 mi
12:20 PM34 °FSunny.18 mph60%29.47 "Hg10 mi
11:50 AM34 °FSunny.17 mph65%29.47 "Hg10 mi
11:20 AM34 °FSunny.17 mph60%29.47 "Hg10 mi
10:50 AM34 °FSunny.17 mph60%29.47 "Hg10 mi
10:20 AM34 °FSunny.15 mph60%29.45 "Hg10 mi
9:50 AM34 °FPartly sunny.15 mph65%29.45 "HgN/A
9:20 AM34 °FPartly sunny.14 mph65%29.45 "HgN/A
8:50 AM34 °FBroken clouds.14 mph65%29.45 "HgN/A
8:20 AM34 °FPartly sunny.15 mph65%29.42 "HgN/A
7:50 AM34 °FPassing clouds.15 mph65%29.42 "HgN/A
7:20 AM34 °FClear.15 mph65%29.39 "Hg10 mi
6:50 AM34 °FOvercast.15 mph65%29.39 "HgN/A
6:20 AM34 °FOvercast.14 mph70%29.39 "HgN/A
5:50 AM34 °FOvercast.13 mph70%29.36 "HgN/A
5:20 AM34 °FOvercast.12 mph70%29.36 "HgN/A
Weather by CustomWeather, © 2016

See weather overviewHow to use our weather pages